When you browse on this site, cookies collect data to enhance your experience and personalize the content and advertising you see.
Visit our Privacy Policy to learn more. By continuing to use the site, you agree to this use of cookies and data.
  • în România
  • Lista ţărilor
  • Pe 7 zile
  • Temperatura apei
  • Hartă satelitară
  • Meteo pe hartă
  • Widget-uri
  • user-avatar
    Intrare

    Meteo pe oră la Eremkino

    Astăzi, 26 Martie, Marţi

    Timp Temperatura Precipitaţii Vânt Presiune Umiditate
    00:00 -2°C° 0 mm 2 m/s 739 mmHg 84%
    01:00 -2°C° 0 mm 2 m/s 739 mmHg 85%
    02:00 -3°C° 0 mm 2 m/s 738 mmHg 86%
    03:00 -3°C° 0 mm 2 m/s 738 mmHg 86%
    04:00 -3°C° 0 mm 2 m/s 738 mmHg 87%
    05:00 -3°C° 0 mm 2 m/s 737 mmHg 88%
    06:00 -2°C° 0 mm 2 m/s 737 mmHg 85%
    07:00 -1°C° 0 mm 2 m/s 737 mmHg 83%
    08:00 +1°C° 0 mm 2 m/s 737 mmHg 80%
    09:00 +1°C° 0.2 mm 3 m/s 738 mmHg 79%
    10:00 +1°C° 0.2 mm 3 m/s 738 mmHg 77%
    11:00 +2°C° 0.2 mm 3 m/s 738 mmHg 76%
    12:00 +1°C° 0.3 mm 4 m/s 738 mmHg 73%
    13:00 +1°C° 0.3 mm 4 m/s 738 mmHg 71%
    14:00 +1°C° 0.3 mm 4 m/s 738 mmHg 68%
    15:00 0°C° 0 mm 4 m/s 738 mmHg 69%
    16:00 +1°C° 0 mm 3 m/s 739 mmHg 70%
    17:00 0°C° 0 mm 3 m/s 739 mmHg 70%
    18:00 -1°C° 0 mm 2 m/s 739 mmHg 75%
    19:00 -2°C° 0 mm 2 m/s 740 mmHg 80%
    20:00 -3°C° 0 mm 2 m/s 740 mmHg 84%
    21:00 -4°C° 0 mm 2 m/s 741 mmHg 85%
    22:00 -4°C° 0 mm 2 m/s 741 mmHg 86%
    23:00 -4°C° 0 mm 2 m/s 742 mmHg 86%

    Mâine, 27 Martie, Miercuri

    Timp Temperatura Precipitaţii Vânt Presiune Umiditate
    00:00 -4°C° 0 mm 2 m/s 742 mmHg 85%
    01:00 -4°C° 0 mm 2 m/s 742 mmHg 84%
    02:00 -5°C° 0 mm 2 m/s 742 mmHg 83%
    03:00 -5°C° 0 mm 2 m/s 743 mmHg 84%
    04:00 -6°C° 0 mm 3 m/s 743 mmHg 85%
    05:00 -6°C° 0 mm 3 m/s 743 mmHg 85%
    06:00 -5°C° 0.1 mm 3 m/s 744 mmHg 83%
    07:00 -4°C° 0.1 mm 4 m/s 744 mmHg 82%
    08:00 -3°C° 0.1 mm 4 m/s 744 mmHg 80%
    09:00 -2°C° 0.2 mm 4 m/s 745 mmHg 77%
    10:00 -2°C° 0.2 mm 5 m/s 746 mmHg 73%
    11:00 -2°C° 0.2 mm 5 m/s 746 mmHg 70%
    12:00 -1°C° 0 mm 5 m/s 747 mmHg 68%
    13:00 -1°C° 0 mm 5 m/s 747 mmHg 65%
    14:00 -1°C° 0 mm 5 m/s 747 mmHg 62%
    15:00 -1°C° 0 mm 4 m/s 748 mmHg 64%
    16:00 -2°C° 0 mm 4 m/s 748 mmHg 66%
    17:00 -2°C° 0 mm 4 m/s 749 mmHg 67%
    18:00 -2°C° 0 mm 4 m/s 749 mmHg 71%
    19:00 -2°C° 0 mm 3 m/s 750 mmHg 74%
    20:00 -2°C° 0 mm 3 m/s 750 mmHg 77%
    21:00 -4°C° 0 mm 3 m/s 750 mmHg 79%
    22:00 -5°C° 0 mm 3 m/s 751 mmHg 81%
    23:00 -5°C° 0 mm 3 m/s 751 mmHg 83%

    Poimâine, 28 Martie, Joi

    Timp Temperatura Precipitaţii Vânt Presiune Umiditate
    00:00 -5°C° 0 mm 3 m/s 751 mmHg 83%
    01:00 -6°C° 0 mm 3 m/s 752 mmHg 84%
    02:00 -6°C° 0 mm 3 m/s 752 mmHg 84%
    03:00 -6°C° 0 mm 3 m/s 752 mmHg 84%
    04:00 -5°C° 0 mm 2 m/s 752 mmHg 83%
    05:00 -5°C° 0 mm 2 m/s 753 mmHg 83%
    06:00 -4°C° 0 mm 2 m/s 753 mmHg 78%
    07:00 -5°C° 0 mm 3 m/s 753 mmHg 73%
    08:00 -4°C° 0 mm 3 m/s 753 mmHg 68%
    09:00 -1°C° 0 mm 3 m/s 753 mmHg 62%
    10:00 0°C° 0 mm 3 m/s 753 mmHg 56%
    11:00 +1°C° 0 mm 3 m/s 753 mmHg 50%
    12:00 +2°C° 0 mm 3 m/s 753 mmHg 51%
    13:00 +2°C° 0 mm 3 m/s 753 mmHg 53%
    14:00 +3°C° 0 mm 3 m/s 752 mmHg 54%
    15:00 +2°C° 0 mm 3 m/s 752 mmHg 58%
    16:00 +3°C° 0 mm 2 m/s 752 mmHg 61%
    17:00 +4°C° 0 mm 1 m/s 751 mmHg 65%
    18:00 +2°C° 0 mm 2 m/s 751 mmHg 70%
    19:00 +1°C° 0 mm 2 m/s 751 mmHg 76%
    20:00 +1°C° 0 mm 2 m/s 751 mmHg 81%
    21:00 +1°C° 0 mm 2 m/s 750 mmHg 84%
    22:00 -1°C° 0 mm 3 m/s 750 mmHg 87%
    23:00 -1°C° 0 mm 3 m/s 749 mmHg 90%

    29 Martie, Vineri

    Timp Temperatura Precipitaţii Vânt Presiune Umiditate
    00:00 -1°C° 0.4 mm 3 m/s 748 mmHg 89%
    01:00 0°C° 0.4 mm 3 m/s 748 mmHg 88%
    02:00 -1°C° 0.4 mm 4 m/s 747 mmHg 88%
    03:00 0°C° 0.2 mm 4 m/s 747 mmHg 88%
    04:00 0°C° 0.2 mm 4 m/s 746 mmHg 88%
    05:00 0°C° 0.2 mm 4 m/s 746 mmHg 88%
    06:00 0°C° 0 mm 4 m/s 746 mmHg 87%
    07:00 +1°C° 0 mm 5 m/s 746 mmHg 86%
    08:00 +1°C° 0 mm 5 m/s 746 mmHg 85%
    09:00 +1°C° 0 mm 5 m/s 746 mmHg 82%
    10:00 +2°C° 0 mm 5 m/s 746 mmHg 79%
    11:00 +2°C° 0 mm 5 m/s 746 mmHg 76%
    12:00 +3°C° 0 mm 5 m/s 747 mmHg 71%
    13:00 +5°C° 0 mm 5 m/s 747 mmHg 67%
    14:00 +6°C° 0 mm 5 m/s 747 mmHg 63%
    15:00 +5°C° 0 mm 4 m/s 747 mmHg 70%
    16:00 +5°C° 0 mm 3 m/s 746 mmHg 77%
    17:00 +5°C° 0 mm 2 m/s 746 mmHg 84%
    18:00 +4°C° 0 mm 2 m/s 746 mmHg 87%
    19:00 +4°C° 0 mm 2 m/s 746 mmHg 90%
    20:00 +3°C° 0 mm 2 m/s 746 mmHg 92%
    21:00 +3°C° 0 mm 2 m/s 745 mmHg 91%
    22:00 +3°C° 0 mm 2 m/s 745 mmHg 91%
    23:00 +2°C° 0 mm 3 m/s 744 mmHg 90%

    30 Martie, Sâmbătă

    Timp Temperatura Precipitaţii Vânt Presiune Umiditate
    00:00 +2°C° 0 mm 3 m/s 744 mmHg 90%
    01:00 +3°C° 0 mm 3 m/s 743 mmHg 91%
    02:00 +3°C° 0 mm 3 m/s 743 mmHg 92%
    03:00 +3°C° 0 mm 4 m/s 742 mmHg 92%
    04:00 +3°C° 0 mm 4 m/s 742 mmHg 92%
    05:00 +3°C° 0 mm 4 m/s 741 mmHg 92%
    06:00 +3°C° 0 mm 5 m/s 741 mmHg 89%
    07:00 +3°C° 0 mm 5 m/s 741 mmHg 85%
    08:00 +4°C° 0 mm 6 m/s 740 mmHg 82%
    09:00 +4°C° 0 mm 6 m/s 740 mmHg 79%
    10:00 +5°C° 0 mm 6 m/s 740 mmHg 76%
    11:00 +5°C° 0 mm 6 m/s 740 mmHg 74%
    12:00 +7°C° 0 mm 6 m/s 740 mmHg 70%
    13:00 +8°C° 0 mm 6 m/s 740 mmHg 67%
    14:00 +9°C° 0 mm 7 m/s 740 mmHg 63%
    15:00 +8°C° 0.1 mm 6 m/s 740 mmHg 66%
    16:00 +7°C° 0.1 mm 5 m/s 740 mmHg 69%
    17:00 +6°C° 0.1 mm 5 m/s 741 mmHg 71%
    18:00 +5°C° 0 mm 4 m/s 741 mmHg 74%
    19:00 +4°C° 0 mm 3 m/s 741 mmHg 76%
    20:00 +4°C° 0 mm 2 m/s 742 mmHg 78%
    21:00 +4°C° 0.1 mm 2 m/s 742 mmHg 81%
    22:00 +4°C° 0.1 mm 2 m/s 741 mmHg 84%
    23:00 +4°C° 0.1 mm 2 m/s 741 mmHg 86%

    31 Martie, Duminică

    Timp Temperatura Precipitaţii Vânt Presiune Umiditate
    00:00 +3°C° 0.1 mm 3 m/s 740 mmHg 85%
    01:00 +2°C° 0.1 mm 3 m/s 740 mmHg 84%
    02:00 +1°C° 0.1 mm 4 m/s 739 mmHg 82%
    03:00 +1°C° 0 mm 4 m/s 739 mmHg 83%
    04:00 +1°C° 0 mm 4 m/s 739 mmHg 84%
    05:00 +2°C° 0 mm 3 m/s 738 mmHg 85%
    06:00 +1°C° 0 mm 4 m/s 738 mmHg 80%
    07:00 +3°C° 0 mm 4 m/s 738 mmHg 74%
    08:00 +2°C° 0 mm 5 m/s 737 mmHg 69%
    09:00 +3°C° 0.5 mm 5 m/s 738 mmHg 68%
    10:00 +3°C° 0.5 mm 6 m/s 738 mmHg 66%
    11:00 +3°C° 0.5 mm 6 m/s 738 mmHg 64%
    12:00 +3°C° 0.1 mm 6 m/s 739 mmHg 59%
    13:00 +3°C° 0.1 mm 6 m/s 739 mmHg 54%
    14:00 +3°C° 0.1 mm 6 m/s 740 mmHg 49%
    15:00 +2°C° 0 mm 5 m/s 740 mmHg 50%
    16:00 +3°C° 0 mm 4 m/s 741 mmHg 50%
    17:00 +1°C° 0 mm 4 m/s 741 mmHg 50%
    18:00 +1°C° 0 mm 3 m/s 742 mmHg 56%
    19:00 0°C° 0 mm 3 m/s 742 mmHg 62%
    20:00 -1°C° 0 mm 3 m/s 743 mmHg 68%
    21:00 -1°C° 0 mm 3 m/s 743 mmHg 70%
    22:00 -1°C° 0 mm 3 m/s 744 mmHg 72%
    23:00 -2°C° 0 mm 3 m/s 744 mmHg 74%
    Arată mai mult